When you browse on this site, cookies collect data to enhance your experience and personalize the content and advertising you see.
Visit our Privacy Policy to learn more. By continuing to use the site, you agree to this use of cookies and data.
  • In Hungary
  • List of Countries
  • For 7 days
  • Water Temperature
  • Weather Map
  • News
  • Weather Widgets
  • user-avatar
    Login

    Hourly Weather Biernow

    Today, 15 December, Sunday

    Time Temperature Precipitation Wind Pressure Humidity
    00:00 +1°C° 0 mm 6 mps 736 mmHg 86%
    01:00 +1°C° 0 mm 6 mps 737 mmHg 87%
    02:00 +1°C° 0 mm 6 mps 737 mmHg 85%
    03:00 +1°C° 0 mm 6 mps 738 mmHg 84%
    04:00 +1°C° 0 mm 6 mps 739 mmHg 82%
    05:00 +1°C° 0 mm 5 mps 739 mmHg 84%
    06:00 0°C° 0 mm 5 mps 739 mmHg 86%
    07:00 0°C° 0 mm 5 mps 739 mmHg 87%
    08:00 0°C° 0 mm 5 mps 739 mmHg 84%
    09:00 +1°C° 0 mm 6 mps 739 mmHg 80%
    10:00 0°C° 0 mm 7 mps 739 mmHg 76%
    11:00 0°C° 0.5 mm 7 mps 739 mmHg 80%
    12:00 +1°C° 0.5 mm 8 mps 738 mmHg 84%
    13:00 +2°C° 0.5 mm 8 mps 738 mmHg 88%
    14:00 +2°C° 0.2 mm 8 mps 738 mmHg 84%
    15:00 +3°C° 0.2 mm 7 mps 739 mmHg 80%
    16:00 +4°C° 0.2 mm 6 mps 739 mmHg 75%
    17:00 +3°C° 0 mm 7 mps 740 mmHg 72%
    18:00 +2°C° 0 mm 8 mps 741 mmHg 69%
    19:00 +1°C° 0 mm 8 mps 741 mmHg 66%
    20:00 +1°C° 0 mm 8 mps 742 mmHg 68%
    21:00 +1°C° 0 mm 8 mps 743 mmHg 69%
    22:00 +1°C° 0 mm 8 mps 743 mmHg 70%
    23:00 +2°C° 0 mm 7 mps 744 mmHg 73%

    Tomorrow, 16 December, Monday

    Time Temperature Precipitation Wind Pressure Humidity
    00:00 +2°C° 0 mm 7 mps 745 mmHg 76%
    01:00 +2°C° 0 mm 6 mps 745 mmHg 79%
    02:00 +1°C° 0 mm 6 mps 746 mmHg 81%
    03:00 +1°C° 0 mm 5 mps 746 mmHg 83%
    04:00 +1°C° 0 mm 5 mps 747 mmHg 85%
    05:00 +1°C° 0 mm 5 mps 747 mmHg 87%
    06:00 +1°C° 0 mm 4 mps 747 mmHg 88%
    07:00 +1°C° 0 mm 4 mps 747 mmHg 89%
    08:00 +1°C° 0 mm 4 mps 748 mmHg 88%
    09:00 +1°C° 0 mm 4 mps 748 mmHg 87%
    10:00 +1°C° 0 mm 4 mps 748 mmHg 86%
    11:00 +3°C° 0 mm 4 mps 748 mmHg 84%
    12:00 +3°C° 0 mm 4 mps 748 mmHg 83%
    13:00 +4°C° 0 mm 3 mps 748 mmHg 81%
    14:00 +4°C° 0 mm 4 mps 748 mmHg 83%
    15:00 +3°C° 0 mm 4 mps 748 mmHg 85%
    16:00 +3°C° 0 mm 4 mps 748 mmHg 87%
    17:00 +4°C° 0 mm 4 mps 747 mmHg 90%
    18:00 +4°C° 0 mm 4 mps 747 mmHg 92%
    19:00 +4°C° 0 mm 4 mps 747 mmHg 94%
    20:00 +5°C° 0.1 mm 4 mps 747 mmHg 93%
    21:00 +5°C° 0.1 mm 4 mps 747 mmHg 92%
    22:00 +5°C° 0.1 mm 4 mps 746 mmHg 91%
    23:00 +5°C° 0 mm 4 mps 746 mmHg 90%

    Day after tomorrow, 17 December, Tuesday

    Time Temperature Precipitation Wind Pressure Humidity
    00:00 +5°C° 0 mm 4 mps 746 mmHg 88%
    01:00 +5°C° 0 mm 4 mps 746 mmHg 87%
    02:00 +5°C° 0 mm 4 mps 746 mmHg 87%
    03:00 +5°C° 0 mm 4 mps 746 mmHg 88%
    04:00 +4°C° 0 mm 3 mps 745 mmHg 88%
    05:00 +4°C° 0 mm 3 mps 745 mmHg 89%
    06:00 +4°C° 0 mm 3 mps 745 mmHg 90%
    07:00 +4°C° 0 mm 3 mps 745 mmHg 91%
    08:00 +4°C° 0 mm 3 mps 746 mmHg 89%
    09:00 +4°C° 0 mm 3 mps 746 mmHg 88%
    10:00 +6°C° 0 mm 2 mps 746 mmHg 86%
    11:00 +5°C° 0 mm 3 mps 746 mmHg 83%
    12:00 +7°C° 0 mm 3 mps 746 mmHg 81%
    13:00 +7°C° 0 mm 3 mps 746 mmHg 78%
    14:00 +7°C° 0 mm 3 mps 746 mmHg 80%
    15:00 +7°C° 0 mm 3 mps 746 mmHg 83%
    16:00 +5°C° 0 mm 3 mps 747 mmHg 86%
    17:00 +5°C° 0 mm 3 mps 747 mmHg 86%
    18:00 +5°C° 0 mm 3 mps 747 mmHg 86%
    19:00 +5°C° 0 mm 3 mps 747 mmHg 86%
    20:00 +5°C° 0 mm 3 mps 747 mmHg 87%
    21:00 +5°C° 0 mm 3 mps 747 mmHg 87%
    22:00 +5°C° 0 mm 3 mps 747 mmHg 87%
    23:00 +5°C° 0 mm 3 mps 747 mmHg 86%

    18 December, Wednesday

    Time Temperature Precipitation Wind Pressure Humidity
    00:00 +5°C° 0 mm 3 mps 747 mmHg 85%
    01:00 +5°C° 0 mm 3 mps 747 mmHg 84%
    02:00 +5°C° 0 mm 3 mps 747 mmHg 84%
    03:00 +5°C° 0 mm 3 mps 747 mmHg 83%
    04:00 +5°C° 0 mm 3 mps 747 mmHg 83%
    05:00 +5°C° 0 mm 4 mps 747 mmHg 83%
    06:00 +5°C° 0 mm 4 mps 747 mmHg 83%
    07:00 +5°C° 0 mm 4 mps 747 mmHg 83%
    08:00 +5°C° 0 mm 5 mps 747 mmHg 81%
    09:00 +6°C° 0 mm 5 mps 747 mmHg 79%
    10:00 +5°C° 0 mm 6 mps 748 mmHg 76%
    11:00 +6°C° 0 mm 5 mps 748 mmHg 76%
    12:00 +7°C° 0 mm 5 mps 748 mmHg 75%
    13:00 +7°C° 0 mm 4 mps 748 mmHg 75%
    14:00 +6°C° 0 mm 4 mps 748 mmHg 79%
    15:00 +7°C° 0 mm 3 mps 748 mmHg 83%
    16:00 +5°C° 0 mm 3 mps 748 mmHg 87%
    17:00 +5°C° 0 mm 3 mps 748 mmHg 88%
    18:00 +5°C° 0 mm 3 mps 749 mmHg 89%
    19:00 +4°C° 0 mm 3 mps 749 mmHg 90%
    20:00 +4°C° 0 mm 3 mps 749 mmHg 89%
    21:00 +5°C° 0 mm 2 mps 749 mmHg 87%
    22:00 +4°C° 0 mm 2 mps 750 mmHg 86%
    23:00 +4°C° 0 mm 2 mps 750 mmHg 87%

    19 December, Thursday

    Time Temperature Precipitation Wind Pressure Humidity
    00:00 +4°C° 0 mm 2 mps 750 mmHg 87%
    01:00 +5°C° 0 mm 1 mps 750 mmHg 88%
    02:00 +5°C° 0 mm 1 mps 750 mmHg 88%
    03:00 +4°C° 0 mm 1 mps 750 mmHg 89%
    04:00 +4°C° 0 mm 1 mps 750 mmHg 90%
    05:00 +4°C° 0 mm 1 mps 750 mmHg 90%
    06:00 +3°C° 0 mm 0 mps 750 mmHg 90%
    07:00 +2°C° 0 mm 0 mps 750 mmHg 90%
    08:00 +4°C° 0 mm 1 mps 750 mmHg 89%
    09:00 +4°C° 0 mm 1 mps 750 mmHg 88%
    10:00 +4°C° 0 mm 1 mps 751 mmHg 87%
    11:00 +5°C° 0 mm 1 mps 750 mmHg 84%
    12:00 +4°C° 0 mm 2 mps 750 mmHg 81%
    13:00 +5°C° 0 mm 2 mps 750 mmHg 78%
    14:00 +4°C° 0 mm 2 mps 750 mmHg 81%
    15:00 +4°C° 0 mm 2 mps 750 mmHg 83%
    16:00 +3°C° 0 mm 2 mps 750 mmHg 86%
    17:00 +2°C° 0 mm 3 mps 750 mmHg 86%
    18:00 +1°C° 0 mm 3 mps 749 mmHg 87%
    19:00 +1°C° 0 mm 3 mps 749 mmHg 87%
    20:00 +1°C° 0 mm 3 mps 749 mmHg 87%
    21:00 +1°C° 0 mm 3 mps 749 mmHg 88%
    22:00 0°C° 0 mm 4 mps 749 mmHg 88%
    23:00 0°C° 0 mm 4 mps 749 mmHg 87%

    20 December, Friday

    Time Temperature Precipitation Wind Pressure Humidity
    00:00 0°C° 0 mm 4 mps 748 mmHg 86%
    01:00 0°C° 0 mm 5 mps 748 mmHg 85%
    02:00 0°C° 0 mm 5 mps 747 mmHg 85%
    03:00 0°C° 0 mm 5 mps 747 mmHg 86%
    04:00 0°C° 0 mm 5 mps 746 mmHg 86%
    05:00 0°C° 0 mm 5 mps 746 mmHg 88%
    06:00 +1°C° 0 mm 5 mps 745 mmHg 90%
    07:00 +1°C° 0 mm 4 mps 745 mmHg 91%
    08:00 +1°C° 0 mm 5 mps 745 mmHg 91%
    09:00 +2°C° 0 mm 5 mps 745 mmHg 91%
    10:00 +2°C° 0 mm 5 mps 745 mmHg 91%
    11:00 +2°C° 0 mm 5 mps 744 mmHg 89%
    12:00 +3°C° 0 mm 5 mps 744 mmHg 88%
    13:00 +3°C° 0 mm 5 mps 743 mmHg 87%
    14:00 +3°C° 0 mm 5 mps 743 mmHg 88%
    15:00 +2°C° 0 mm 5 mps 742 mmHg 90%
    16:00 +2°C° 0 mm 6 mps 742 mmHg 91%
    17:00 +2°C° 0 mm 6 mps 742 mmHg 91%
    18:00 +2°C° 0 mm 6 mps 741 mmHg 91%
    19:00 +2°C° 0 mm 6 mps 741 mmHg 91%
    20:00 +2°C° 0 mm 6 mps 740 mmHg 91%
    21:00 +3°C° 0 mm 6 mps 740 mmHg 91%
    22:00 +3°C° 0 mm 5 mps 739 mmHg 91%
    23:00 +3°C° 0 mm 5 mps 739 mmHg 91%
    Show more